DECAYED

DMSP 5D-2 F13 DEB, 40566 (Decayed)

Orbit data source: Space-Track

DMSP 5D-2 F13 DEB, 40566 was space debris in LEO originally from a launch on Fri, 24 Mar 1995 UTC launched from the Air Force Western Test Range (AFWTR). Debris objects in space refer to the collection of defunct objects orbiting the Earth. Examples of debris include non-operational satellites, rocket bodies, and fragments generated from explosions, collisions, or faulty payload assembly.

Not visible in the next 10 days
DMSP 5D-2 F13 DEB details
Identifier
40566, 1995-015DZ
Orbit
Decayed
Last TLE update2 months ago
Origin
Flag of USUSAF SMC (US)
ManufacturerUnknown
MissionDecayed spacecraft
Bus & MotorUnknown
MassUnknown
Launch date (UTC)
1995-03-24 (30 years ago)
Launch vehicleUnknown
Launch site
Air Force Western Test Range (AFWTR)
Object type
Payload
Rocket body
Debris
Shape & HBRUnknown
Radar Cross SectionSmall (<0.1 m²)

Expand to show TLE details & history

TLE from 2 months ago
0 DMSP 5D-2 F13 DEB
1 40566U 95015DZ  24277.19457528  .06478585  57290-1  37368-1 0  9999
2 40566  98.6213  56.6061 0030997 306.2039  53.6361 15.83306738501359
Epoch: 2024-10-03T04:40Z
Definitive object data (Epoch: 2024-10-03T04:40:11.304Z)
Latitude
Longitude-25.82409°
Altitude311.961 km
Speed7.728 km/s
True Right ascension03h 46m 25s
True Declination0° 00' 00"
Sunlit
Object was in full shadow at TLE epoch
Visualization observer readout
Observer readout values are unavailable because the object's trajectory could not be propagated. This is usually caused when the trajectory data is faulty or the object's orbit has decayed.
Visualization observer readout
Observer readout values are unavailable because the object's trajectory could not be propagated. This is usually caused when the trajectory data is faulty or the object's orbit has decayed.
Orbital elements
Apogee altitude338.793 km
Perigee altitude297.28 km
Semi-major axis6,696.173 km
Eccentricity0.0030997
Inclination98.6213°
RAAN56.6061°
Arg. of periapsis306.2039°
True anomaly53.92279°
Mean anomaly53.6361°
Eccentric anomaly53.77938°
Mean motion3.96098 °/min
BSTAR0.037368
Orbital period90.89 mins
Loading maneuver chart data...

DMSP 5D-2 F13 DEB Visibility forecast

Observer location: undefined°, undefined

This satellite is decayed
Span
Click to sort rows by Start time (UTC) header in descending order
Start Az.
Max El. time (UTC)
Max El. Az.
Max El.
End time (UTC)
End Az.
|